Chatawa, MS

1:13 AM CDT on September 01, 2016 (GMT -0500)
McComb-Pike County-Lewis

Weather History for KMCB - March, 2013

Change the Weather History Date:

Tuesday, March 19, 2013

  Actual Average Record
Temperature  
Mean Temperature 60 °F -  
Max Temperature 75 °F 72 °F 87 °F (1982)
Min Temperature 48 °F 47 °F 27 °F (1965)
Degree Days  
Heating Degree Days 4    
Growing Degree Days 10 (Base 50)    
Moisture  
Dew Point 41 °F    
Average Humidity 53    
Maximum Humidity 88    
Minimum Humidity 23    
Precipitation  
Precipitation 0.00 in - - ()
Sea Level Pressure  
Sea Level Pressure 30.00 in    
Wind  
Wind Speed 7 mph (NE)    
Max Wind Speed 13 mph    
Max Gust Speed 20 mph    
Visibility 10 miles    
Events      
Averages and records for this station are not official NWS values.
T = Trace of Precipitation, MM = Missing Value Source: NWS Daily Summary

Daily Weather History Graph

Daily Weather History Graph

Search for Another Location

Airport or City:

Trip Planner

Search our weather history database for the weather conditions in past years. The results will help you decide how hot, cold, wet, or windy it might be!

Date:

Astronomy

Mar. 19, 2013 Rise Set
Actual Time 7:06 AM CDT 7:12 PM CDT
Civil Twilight 6:42 AM CDT 7:37 PM CDT
Nautical Twilight 6:14 AM CDT 8:05 PM CDT
Astronomical Twilight 5:45 AM CDT 8:33 PM CDT
Moon 12:17 PM CDT (3/19) 1:38 AM CDT (3/19)
Length of Visible Light 12h 54m
Length of Day
12h 06m
Waxing Crescent, 50% of the Moon is Illuminated
Mar 19
Waxing Crescent
Mar 19
First Quarter
Mar 27
Full
Apr 2
Last Quarter
Apr 10
New

Hourly Weather History & Observations

Time (CDT) Temp. Dew Point Humidity Pressure Visibility Wind Dir Wind Speed Gust Speed Precip Events Conditions
12:16 AM 62.6 °F 57.2 °F 82% 29.95 in 10.0 mi North 6.9 mph - N/A   Overcast
12:33 AM 62.6 °F 57.2 °F 82% 29.95 in 10.0 mi North 4.6 mph - N/A   Overcast
12:53 AM 61.0 °F 57.0 °F 87% 29.95 in 10.0 mi North 10.4 mph - N/A   Overcast
1:17 AM 60.8 °F 55.4 °F 82% 29.96 in 10.0 mi North 6.9 mph - N/A   Overcast
1:30 AM 59.0 °F 55.4 °F 88% 29.97 in 10.0 mi North 8.1 mph - N/A   Mostly Cloudy
1:53 AM 57.9 °F 53.1 °F 84% 29.96 in 10.0 mi North 10.4 mph - N/A   Partly Cloudy
2:53 AM 55.0 °F 46.0 °F 72% 29.99 in 10.0 mi NNE 12.7 mph 18.4 mph N/A   Overcast
3:53 AM 53.1 °F 45.0 °F 74% 29.99 in 10.0 mi NNE 10.4 mph 19.6 mph N/A   Clear
4:53 AM 52.0 °F 43.0 °F 71% 30.00 in 10.0 mi NNE 10.4 mph 17.3 mph N/A   Clear
5:53 AM 50.0 °F 42.1 °F 74% 30.02 in 10.0 mi NE 8.1 mph - N/A   Clear
6:53 AM 48.9 °F 42.1 °F 77% 30.03 in 10.0 mi NE 6.9 mph - N/A   Clear
7:53 AM 48.9 °F 41.0 °F 74% 30.03 in 10.0 mi Variable 5.8 mph - N/A   Clear
8:53 AM 52.0 °F 37.9 °F 59% 30.04 in 10.0 mi East 11.5 mph 17.3 mph N/A   Clear
9:53 AM 55.9 °F 35.1 °F 45% 30.04 in 10.0 mi ENE 9.2 mph 17.3 mph N/A   Clear
10:53 AM 61.0 °F 32.0 °F 34% 30.04 in 10.0 mi Variable 5.8 mph - N/A   Clear
11:53 AM 64.9 °F 33.1 °F 31% 30.06 in 10.0 mi Variable 6.9 mph - N/A   Clear
12:53 PM 70.0 °F 33.1 °F 26% 30.05 in 10.0 mi Variable 5.8 mph - N/A   Clear
1:53 PM 70.0 °F 32.0 °F 25% 30.02 in 10.0 mi East 8.1 mph - N/A   Clear
2:53 PM 72.0 °F 32.0 °F 23% 30.00 in 10.0 mi East 5.8 mph - N/A   Clear
3:53 PM 73.0 °F 34.0 °F 24% 29.97 in 10.0 mi SE 5.8 mph - N/A   Clear
4:53 PM 73.9 °F 35.1 °F 24% 29.96 in 10.0 mi East 5.8 mph - N/A   Clear
5:53 PM 73.0 °F 35.1 °F 25% 29.97 in 10.0 mi ENE 4.6 mph - N/A   Clear
6:53 PM 66.9 °F 42.1 °F 40% 29.97 in 10.0 mi Calm Calm - N/A   Clear
7:53 PM 66.9 °F 36.0 °F 32% 29.99 in 10.0 mi NE 3.5 mph - N/A   Clear
8:53 PM 64.0 °F 37.0 °F 37% 30.01 in 10.0 mi NNE 4.6 mph - N/A   Mostly Cloudy
9:53 PM 63.0 °F 36.0 °F 37% 30.02 in 10.0 mi Variable 4.6 mph - N/A   Scattered Clouds
10:53 PM 61.0 °F 36.0 °F 39% 30.02 in 10.0 mi NNE 5.8 mph - N/A   Clear
11:53 PM 61.0 °F 35.1 °F 38% 30.02 in 10.0 mi ENE 5.8 mph - N/A   Clear